Regional Weather Roundup
Issued by NWS

Home | Current Version | Previous Version | Text Only | Print | Product List | Glossary On
Versions: 1 2 3 4 5 6 7 8 9 10 11 12 13 14 15 16 17 18 19 20 21 22 23 24 25 26 27 28 29 30 31 32 33 34 35 36 37 38 39 40 41 42 43 44 45 46 47 48 49 50
000
ASUS45 KABQ 221810
RWRNM
NEW MEXICO REGIONAL WEATHER ROUNDUP
NATIONAL WEATHER SERVICE ALBUQUERQUE NM
1100 AM MST WED FEB 22 2017

NOTE: "FAIR" MEANS FEW OR NO CLOUDS BELOW 12,000 FEET AGL WITH NO
       SIGNIFICANT WEATHER OR OBSTRUCTIONS TO VISION.

      THIS PRODUCT IS RELEASED AS TWO VERSIONS.  ONE VERSION NEAR
      THE TOP OF THE HOUR CONTAINING PRELIMINARY DATA FROM ALBUQUERQUE
      AND OTHER STATIONS.  A FINAL VERSION WITH ADDITIONAL DATA IS
      ISSUED ABOUT 10 MINUTES AFTER THE HOUR.

NMZ501-503-504-510>518-221900-
NORTHWEST PLATEAU/NORTHCENTRAL MOUNTAINS

CITY           SKY/WX    TMP DP  RH WIND       PRES   REMARKS
FARMINGTON     FAIR      50  40  68 E6        30.04F
6HR MIN TEMP:  37; 6HR MAX TEMP:  50;

LOS ALAMOS     FAIR      50  33  50 S8        30.13F
SANTA FE       CLOUDY    57  35  43 S8        30.10F
6HR MIN TEMP:  33; 6HR MAX TEMP:  58;

TAOS             N/A     52  28  40 W14G20    30.12F
ANGEL FIRE     PTSUNNY   46  30  54 W12G18    30.16R

$$
NMZ402-403-502-505>509-221900-
WESTCENTRAL MOUNTAINS/SOUTHWEST MOUNTAINS

CITY           SKY/WX    TMP DP  RH WIND       PRES   REMARKS
GALLUP         FAIR      54  38  54 SW16      30.12F
6HR MIN TEMP:  31; 6HR MAX TEMP:  54;

GRANTS         FAIR      59  33  37 W17G28    30.12F
SILVER CITY    FAIR      65  32  29 W9        30.16S

$$
NMZ407-409-411-412-221900-
SOUTHERN DESERTS

CITY           SKY/WX    TMP DP  RH WIND       PRES   REMARKS
DEMING         FAIR      67  40  37 SW8       30.12F
6HR MIN TEMP:  40; 6HR MAX TEMP:  67;

LAS CRUCES     FAIR      67  36  32 S8        30.12F
HOLLOMAN AFB   FAIR      63  36  35 S7        30.13F
ALAMOGORDO     FAIR      64  37  36 S10       30.11F
T OR C         FAIR      66  33  29 S10       30.09F
6HR MIN TEMP:  45; 6HR MAX TEMP:  66;


$$
NMZ519>523-221900-
CENTRAL VALLEYS/CENTRAL HIGHLANDS

CITY           SKY/WX    TMP DP  RH WIND       PRES   REMARKS
ALBUQUERQUE    PTSUNNY   58  35  42 W3        30.10F
6HR MIN TEMP:  42; 6HR MAX TEMP:  58;

DOUBLE EAGLE   PTSUNNY   55  37  50 S3        30.12F
MORIARTY ARPT  FAIR      62  34  35 W15       30.12F
6HR MIN TEMP:  30; 6HR MAX TEMP:  62;

CLINES CORNERS FAIR      56  33  42 W14       30.13F
6HR MIN TEMP:  33; 6HR MAX TEMP:  56;

BELEN          FAIR      63  30  29 SW8       30.08F
6HR MIN TEMP:  39; 6HR MAX TEMP:  63;

SOCORRO        FAIR      62  35  35 S12       30.09F
6HR MIN TEMP:  37; 6HR MAX TEMP:  62;


$$
NMZ524>526-539-540-221900-
SOUTHCENTRAL MOUNTAINS

CITY           SKY/WX    TMP DP  RH WIND       PRES   REMARKS
RUIDOSO        FAIR      64  25  22 W15G21    30.16F

$$
NMZ527>531-221900-
NORTHEAST HIGHLANDS/NORTHEAST PLAINS

CITY           SKY/WX    TMP DP  RH WIND       PRES   REMARKS
RATON          FAIR      64  18  17 W18G26    29.98F
6HR MIN TEMP:  44; 6HR MAX TEMP:  64;

CLAYTON          N/A     74  16  11 W21G36    29.90F
6HR MIN TEMP:  44; 6HR MAX TEMP:  74;


$$
NMZ532>537-221900-
EASTCENTRAL PLAINS

CITY           SKY/WX    TMP DP  RH WIND       PRES   REMARKS
TUCUMCARI      FAIR      74  33  22 W14       29.94F
6HR MIN TEMP:  42; 6HR MAX TEMP:  74;

CANNON AFB     SUNNY     72  34  24 W24G35    29.97F
6HR MIN TEMP:  51; 6HR MAX TEMP:  72;

CLOVIS AIRPORT FAIR      73  36  25 W25       29.97F

$$
NMZ028-029-538-221900-
SOUTHEAST PLAINS

CITY           SKY/WX    TMP DP  RH WIND       PRES   REMARKS
ROSWELL        FAIR      72  34  24 SE10        N/A
6HR MIN TEMP:  41; 6HR MAX TEMP:  72;

ARTESIA        FAIR      73  32  21 S12       30.01F
CARLSBAD       FAIR      77  32  19 SE6       30.00F
6HR MIN TEMP:  48; 6HR MAX TEMP:  78;

HOBBS          SUNNY     75  32  20 SW10G20   30.03F


$$




USA.gov is the U.S. government's official web portal to all federal, state and local government web resources and services.